Weather History for Pensacola NAS, FL

Change the Weather History Date:

Sunday, November 18, 2012

  Actual Average Record
Temperature  
Mean Temperature 56 °F -  
Max Temperature 69 °F 68 °F 78 °F (2003)
Min Temperature 43 °F 50 °F 33 °F (1997)
Degree Days  
Heating Degree Days 9    
Growing Degree Days 6 (Base 50)    
Moisture  
Dew Point 43 °F    
Average Humidity 67    
Maximum Humidity 82    
Minimum Humidity 42    
Precipitation  
Precipitation 0.00 in - - ()
Sea Level Pressure  
Sea Level Pressure 30.27 in    
Wind  
Wind Speed 6 mph (NNE)    
Max Wind Speed 13 mph    
Max Gust Speed -    
Visibility 10 miles    
Events      
Averages and records for this station are not official NWS values.
T = Trace of Precipitation, MM = Missing Value Source: NWS Daily Summary

Daily Weather History Graph

Daily Weather History Graph

Search for Another Location

Airport:

Trip Planner

Search our weather history database for the weather conditions in past years. The results will help you decide how hot, cold, wet, or windy it might be!

Date:

Astronomy

Nov. 18, 2012 Rise Set
Actual Time 6:17 AM CST 4:50 PM CST
Civil Twilight 5:52 AM CST 5:16 PM CST
Nautical Twilight 5:23 AM CST 5:45 PM CST
Astronomical Twilight 4:54 AM CST 6:14 PM CST
Moon 10:48 AM CST (11/18) 10:04 PM CST (11/18)
Length of Visible Light 11h 24m
Length of Day
10h 33m
Waxing Crescent, 30% of the Moon is Illuminated
Nov 18
Waxing Crescent
Nov 20
First Quarter
Nov 28
Full
Dec 6
Last Quarter
Dec 13
New

Hourly Weather History & Observations

Time (CST) Temp. Windchill Dew Point Humidity Pressure Visibility Wind Dir Wind Speed Gust Speed Precip Events Conditions
12:56 AM 46.0 °F 43.1 °F 39.0 °F 76% 30.29 in 10.0 mi NNW 5.8 mph - N/A   Clear
1:56 AM 46.0 °F 43.9 °F 39.9 °F 79% 30.27 in 10.0 mi NNE 4.6 mph - N/A   Scattered Clouds
2:56 AM 43.0 °F 40.3 °F 37.9 °F 82% 30.26 in 10.0 mi NNW 4.6 mph - N/A   Clear
3:56 AM 44.1 °F 40.8 °F 39.0 °F 82% 30.27 in 10.0 mi NNW 5.8 mph - N/A   Mostly Cloudy
4:56 AM 43.0 °F 41.3 °F 37.9 °F 82% 30.28 in 10.0 mi North 3.5 mph - N/A   Clear
5:56 AM 45.0 °F 41.2 °F 39.0 °F 80% 30.28 in 10.0 mi North 6.9 mph - N/A   Mostly Cloudy
6:56 AM 48.0 °F - 39.0 °F 71% 30.30 in 10.0 mi Calm Calm - N/A   Mostly Cloudy
7:56 AM 53.1 °F - 39.9 °F 61% 30.30 in 10.0 mi NE 9.2 mph - N/A   Clear
8:56 AM 55.0 °F - 42.1 °F 62% 30.30 in 10.0 mi ENE 10.4 mph - N/A   Partly Cloudy
9:56 AM 59.0 °F - 44.1 °F 58% 30.32 in 10.0 mi ENE 6.9 mph - N/A   Scattered Clouds
10:56 AM 63.0 °F - 45.0 °F 52% 30.30 in 10.0 mi Variable 5.8 mph - N/A   Scattered Clouds
11:56 AM 66.0 °F - 44.1 °F 45% 30.27 in 10.0 mi NNE 4.6 mph - N/A   Scattered Clouds
12:56 PM 66.9 °F - 45.0 °F 45% 30.25 in 10.0 mi ENE 5.8 mph - N/A   Partly Cloudy
1:56 PM 69.1 °F - 45.0 °F 42% 30.22 in 10.0 mi North 11.5 mph - N/A   Clear
2:56 PM 69.1 °F - 45.0 °F 42% 30.22 in 10.0 mi NNE 12.7 mph - N/A   Partly Cloudy
3:56 PM 68.0 °F - 46.0 °F 45% 30.22 in 10.0 mi NE 8.1 mph - N/A   Clear
4:56 PM 60.1 °F - 48.0 °F 64% 30.24 in 10.0 mi Calm Calm - N/A   Partly Cloudy
5:56 PM 55.0 °F - 48.0 °F 77% 30.25 in 10.0 mi NNE 3.5 mph - N/A   Partly Cloudy
6:56 PM 55.0 °F - 46.9 °F 74% 30.26 in 10.0 mi North 3.5 mph - N/A   Clear
7:56 PM 53.1 °F - 46.9 °F 80% 30.28 in 10.0 mi NNW 4.6 mph - N/A   Clear
8:28 PM 51.8 °F - 46.4 °F 82% 30.27 in 10.0 mi North 3.5 mph - N/A   Clear
8:56 PM 53.1 °F - 46.0 °F 77% 30.28 in 10.0 mi North 4.6 mph - N/A   Clear
9:56 PM 54.0 °F - 46.0 °F 75% 30.28 in 10.0 mi North 5.8 mph - N/A   Clear
10:56 PM 51.1 °F - 45.0 °F 80% 30.28 in 10.0 mi North 4.6 mph - N/A   Clear
11:56 PM 52.0 °F - 44.1 °F 74% 30.27 in 10.0 mi North 6.9 mph - N/A   Clear